Location: Newark
(41.6500°N, 71.4833°W)
Time: 02:37:30
(UTC+00:00)

Courier 1B - Pass Details

Date: 22 January 2020
Orbit: 962 x 1209 km, 28.3° (Epoch: 25 February)

Event Time Altitude Azimuth Distance (km) Brightness Sun altitude
Rises 09:29:42 0° 237° (WSW) 3,969 - -29.1°
Reaches altitude 10° 09:32:53 10° 226° (SW) 3,045 - -28.6°
Exits shadow 09:36:20 22° 203° (SSW) 2,285 9.2 -27.9°
Maximum altitude 09:39:05 28° 171° (S) 2,066 9.2 -27.4°
Drops below altitude 10° 09:45:26 10° 116° (ESE) 3,136 11.0 -26.2°
Sets 09:48:46 0° 106° (ESE) 4,108 12.0 -25.6°
